Flag for Germany Weather past 2 weeks in Barsinghausen, Lower Saxony, Germany

Now
59 °F

Cool.


Feels Like: 59 °F
Forecast: 52 / 64 °F
Wind: 5 mph from West

Location: Wunstorf Airport

Current Time: Aug 27, 2015 at 10:11:24 PM

Latest Report: Aug 27, 2015 at 9:20 PM


Visibility: 2 mi

Pressure: 29.86 "Hg

Humidity: 94%

Dew point: 57 °F

Location of BarsinghausenLocation

Historic Weather in Barsinghausen — Graph

°F

Barsinghausen temperature yesterday

Maximum temperature yesterday: 81 °F (at 4:20 PM)
Minimum temperature yesterday: 59 °F (at 2:20 AM)
Average temperature yesterday: 69 °F

Past Weeks' High & Low Weather Summary

 TemperatureHumidityPressure
High82 °F (Aug 13, 4:20 PM)100% (Aug 16, 4:20 AM)30.27 "Hg (Aug 16, 4:20 AM)
Low54 °F (Aug 22, 5:20 AM)32% (Aug 22, 1:20 PM)29.59 "Hg (Aug 24, 6:20 PM)
Average67 °F74%29.94 "Hg
* Reported Aug 12 8:20 PM — Aug 27 8:20 PM, Barsinghausen, Weather by CustomWeather, © 2015

Note: Actual official high and low records may vary slightly from our data, if they occured in-between our weather recording intervals... More about our weather records

Advertising

Barsinghausen weather history for previous 24 hours

 ConditionsComfort  
Time TempWeatherWind HumidityBarometerVisibility
8:20 PM
Thu, Aug 27
59 °FCool.5 mph94%29.86 "Hg2 mi
7:20 PM59 °FRain. Broken clouds.7 mph94%29.83 "Hg4 mi
6:20 PM61 °FRain. Fog.5 mph94%29.83 "Hg3 mi
5:20 PM63 °FRain. Broken clouds.3 mph94%29.86 "Hg4 mi
4:20 PM64 °FLight rain. Mostly cloudy.7 mph83%29.86 "HgN/A
3:20 PM66 °FLight rain. More clouds than sun.6 mph73%29.83 "HgN/A
2:20 PM66 °FLight rain. More clouds than sun.8 mph73%29.83 "HgN/A
1:20 PM70 °FOvercast.8 mph60%29.83 "HgN/A
12:20 PM70 °FOvercast.14 mph64%29.83 "HgN/A
11:20 AM70 °FPartly sunny.9 mph69%29.83 "HgN/A
10:20 AM70 °FLight rain. Mostly cloudy.12 mph69%29.83 "HgN/A
9:20 AM70 °FPartly sunny.8 mph64%29.80 "HgN/A
8:20 AM68 °FBroken clouds.8 mph64%29.80 "HgN/A
7:20 AM66 °FPartly cloudy.7 mph68%29.77 "HgN/A
6:20 AM68 °FPassing clouds.7 mph60%29.77 "HgN/A
5:20 AM70 °FPartly cloudy.10 mph57%29.74 "HgN/A
4:20 AM72 °FMild.13 mph50%29.74 "Hg4 mi
3:20 AM72 °FMild.13 mph50%29.74 "Hg4 mi
2:20 AM70 °FMild.9 mph57%29.77 "Hg4 mi
1:20 AM72 °FMild.9 mph53%29.80 "Hg4 mi
12:20 AM72 °FMild.12 mph53%29.80 "Hg4 mi
11:20 PM
Wed, Aug 26
70 °FMild.7 mph60%29.83 "Hg4 mi
10:20 PM72 °FMild.10 mph57%29.83 "Hg4 mi
Weather by CustomWeather, © 2015

See weather overviewHow to use our weather pages